[[{"header":{"parameterUnit":"m.s-1","parameterCategory":1,"la1":30.2991,"la2":30.254,"lo1":-89.0895,"lo2":-89.0444,"dy":0.0017,"dx":0.0017,"nx":28,"ny":28,"refTime":"2025-08-01T03:00:00:Z","depth":0,"parameterNumber":2,"parameterNumberName":"U-component_of_WINDS"},"data":[0,0,0,0,0,0,0,0,0,0,0,0,0,0,0,0,0,0,0,0,0,0,0,0,0,0,0,0,0,0,0,0,0,0,0,0,0,0,0,0,0,0,0,0,0,0,0,0,0,0,0,0,0,0,0,0,0,0,2.9224,2.9224,0,2.9295,2.9296,2.9297,2.924,2.9238,2.9235,2.9233,2.9305,2.9309,2.9313,0,0,0,0,0,0,0,0,0,0,0,0,0,2.9037,2.9041,2.9224,2.9224,2.9225,2.9295,2.9296,2.9297,2.924,2.9237,2.9235,2.9232,2.9303,2.9308,2.9313,0,0,0,0,0,0,0,0,0,0,0,0,0,2.9114,2.9042,2.9223,2.9206,2.9205,2.9295,2.9296,2.9297,2.9241,2.9237,2.9234,2.923,2.9302,2.9308,2.9314,2.9425,0,0,2.9333,2.9336,0,0,0,0,0,0,0,0,2.911,2.9121,2.9207,2.9207,2.9206,2.9255,2.9256,2.934,2.9242,2.9227,2.9233,2.9229,2.9291,2.9298,2.9319,2.9428,2.9431,2.9333,2.9337,2.934,2.9342,0,0,0,0,0,0,0,2.9105,2.9118,2.9252,2.9209,2.9208,2.9194,2.9201,2.9272,2.9278,2.9228,2.9224,2.9234,2.929,2.9313,2.932,2.9432,2.9333,2.9339,2.9343,2.9345,2.9637,2.9641,0,0,0,0,0,0,2.9101,2.9114,2.9249,2.9254,2.9148,2.92,2.9208,2.9243,2.9278,2.9279,2.9237,2.9231,2.9304,2.9313,2.9323,2.9455,2.934,2.9346,2.9349,2.9633,2.9638,2.9642,0,0,0,0,0,0,2.9097,2.9114,2.9247,2.9183,2.9199,2.9207,2.9247,2.9246,2.9269,2.9284,2.9285,2.9259,2.9302,2.9314,2.94,2.9457,2.9349,2.9354,2.9628,2.9634,2.964,2.9721,0,0,0,0,0,0,2.9092,2.9113,2.9155,2.9184,2.9202,2.9323,2.9251,2.925,2.9281,2.9274,2.9305,2.9307,2.93,2.9391,2.9406,2.9463,2.9359,2.9623,2.9631,2.9638,2.9713,2.9729,2.9742,0,0,0,0,0,2.9086,2.9175,2.9158,2.9174,2.9256,2.9327,2.9337,2.9327,2.9285,2.9328,2.9337,2.9306,2.9448,2.94,2.9417,2.9477,2.9619,2.9629,2.9637,2.9706,2.9726,2.9742,0,0,0,0,0,0,2.9151,2.9178,2.9159,2.9261,2.9292,2.9317,2.937,2.9348,2.9391,2.9383,2.9368,2.9376,2.9467,2.948,2.9427,2.9586,2.9527,2.954,2.9574,2.9592,2.9607,2.9601,2.9364,0,0,0,0,0,2.9178,2.9234,2.9254,2.9341,2.9358,2.9362,2.9392,2.9382,2.9414,2.9427,2.9442,2.9474,2.9525,2.956,2.9608,2.9715,2.9721,2.9765,2.9779,2.9791,2.9802,2.986,2.9879,2.9671,2.9671,2.9671,0,0,2.9232,2.9254,2.929,2.9355,2.9378,2.9436,2.9373,2.9437,2.948,2.9436,2.9518,2.9531,2.9566,2.9663,2.9706,2.9677,2.9861,2.9803,2.9812,2.9816,2.9871,2.9891,2.9908,2.9678,2.9676,2.9676,0,0,2.9361,2.9384,2.9459,2.9484,2.952,2.9522,2.954,2.9569,2.9576,2.9659,2.9628,2.9678,2.9768,2.9794,2.9818,2.9959,2.9932,2.9975,3.0051,3.0108,3.0124,3.0138,3.0188,3.0206,2.9986,2.9987,2.9987,0,2.9424,2.9511,2.95,2.9567,2.9596,2.9561,2.9636,2.9661,2.9711,2.9732,2.9699,2.9811,2.9831,2.9934,2.9969,2.999,3.001,2.9971,3.0123,3.0137,3.015,3.0198,3.0217,2.9992,2.9991,2.999,2.999,0,2.9587,2.9647,2.9704,2.9754,2.979,2.9861,2.986,2.9898,2.9885,2.9891,2.9976,3.0,3.0053,3.0076,3.0064,3.0178,3.0159,3.0125,3.0064,3.0175,3.022,3.0238,2.9999,2.9997,2.9995,2.9994,0,0,2.9758,2.9802,2.9823,2.9845,2.9883,2.993,2.9999,3.0051,3.0084,3.012,3.0178,3.0255,3.0224,3.0252,3.0243,3.0293,3.0403,3.0252,3.0253,3.0279,3.0529,3.0554,3.0575,3.0386,3.0389,3.0392,3.0526,0,2.9888,3.001,3.0003,3.0117,3.0172,3.014,3.0201,3.023,3.0238,3.0286,3.0294,3.0349,3.0304,3.0321,3.0369,3.0379,3.0453,3.037,3.0439,3.0441,3.043,3.0599,3.0625,3.0751,3.0544,3.0547,3.0549,0,3.0057,3.0099,3.0219,3.0249,3.0272,3.0327,3.0375,3.0422,3.0455,3.0457,3.0489,3.0472,3.0542,3.0482,3.0578,3.0522,3.055,3.0559,3.0564,3.0569,3.0501,3.0608,3.0791,3.0809,3.0576,3.0574,3.0572,0,3.0169,3.0257,3.0339,3.036,3.0397,3.0436,3.0454,3.0483,3.0516,3.0557,3.0578,3.0628,3.0654,3.0693,3.069,3.0646,3.0788,3.0727,3.0791,3.0791,3.0821,3.0819,3.101,3.0841,3.0841,3.084,3.084,0,3.0315,3.039,3.0391,3.0442,3.0524,3.0515,3.0597,3.061,3.0637,3.069,3.0665,3.0715,3.0708,3.0758,3.0756,3.0836,3.0849,3.0852,3.0851,3.0854,3.0854,3.0871,3.0862,3.0845,3.0844,3.0843,3.0842,0,3.0454,3.0458,3.0546,3.0575,3.0584,3.0643,3.0668,3.0716,3.0722,3.0789,3.0804,3.0814,3.0872,3.0872,3.0939,3.0937,3.1035,3.1024,3.1024,3.1021,3.1086,3.1079,3.1294,3.1322,3.1135,3.1137,3.1139,0,3.0547,3.0603,3.0638,3.0672,3.0692,3.0747,3.078,3.0774,3.0809,3.0852,3.0895,3.0951,3.0995,3.1089,3.1102,3.1153,3.1142,3.1214,3.1149,3.1151,3.1142,3.1139,3.1144,3.1226,3.1228,3.123,3.1231,0,3.0711,3.071,3.0759,3.0809,3.0849,3.0888,3.0923,3.0953,3.095,3.0991,3.1051,3.1085,3.1153,3.1209,3.1258,3.1276,3.1254,3.1252,3.1269,3.1273,3.127,3.1272,3.1058,3.1247,3.1245,3.1244,3.1243,3.1242,3.0829,3.0878,3.091,3.0966,3.0992,3.1026,3.1073,3.1086,3.1135,3.119,3.1184,3.125,3.1282,3.1346,3.1368,3.1419,3.1394,3.142,3.1426,3.1432,3.1439,3.1263,3.1429,3.1428,3.1428,3.1427,3.1427,0,3.0991,3.1011,3.1062,3.1113,3.1157,3.1133,3.1171,3.1209,3.1268,3.13,3.1344,3.1413,3.1467,3.1484,3.1537,3.1575,3.1566,3.1589,3.1585,3.159,3.1459,3.1438,3.1595,3.1595,3.1595,3.1595,3.1595,3.1595,3.1081,3.1162,3.1165,3.126,3.1279,3.1344,3.1368,3.1399,3.1425,3.1503,3.1548,3.1559,3.1585,3.164,3.1688,3.1692,3.1712,3.1739,3.1739,3.1616,3.1599,3.1583,3.1563,3.1744,3.1744,3.1865,3.1866,3.1867]},{"header":{"parameterUnit":"m.s-1","parameterCategory":1,"la1":30.2991,"la2":30.254,"lo1":-89.0895,"lo2":-89.0444,"dy":0.0017,"dx":0.0017,"nx":28,"ny":28,"refTime":"2025-08-01T03:00:00:Z","depth":0,"parameterNumber":3,"parameterNumberName":"V-component_of_WINDS"},"data":[0,0,0,0,0,0,0,0,0,0,0,0,0,0,0,0,0,0,0,0,0,0,0,0,0,0,0,0,0,0,0,0,0,0,0,0,0,0,0,0,0,0,0,0,0,0,0,0,0,0,0,0,0,0,0,0,0,0,-1.0558,-1.0556,0,-1.0345,-1.0343,-1.034,-1.0282,-1.0283,-1.0284,-1.0285,-1.0055,-1.0048,-1.004,0,0,0,0,0,0,0,0,0,0,0,0,0,-1.0904,-1.0898,-1.0558,-1.0555,-1.0553,-1.0345,-1.0342,-1.0339,-1.0281,-1.0283,-1.0284,-1.0286,-1.0057,-1.0049,-1.004,0,0,0,0,0,0,0,0,0,0,0,0,0,-1.0729,-1.0896,-1.0558,-1.0499,-1.0492,-1.0346,-1.0342,-1.0339,-1.0281,-1.0283,-1.0285,-1.0287,-1.006,-1.0049,-1.0039,-0.9933,0,0,-1.0005,-1.0,0,0,0,0,0,0,0,0,-1.0739,-1.0716,-1.051,-1.0503,-1.0494,-1.0342,-1.038,-1.0202,-1.0281,-1.0361,-1.0285,-1.0288,-1.0148,-1.013,-1.0085,-0.9922,-0.9912,-1.0004,-0.9997,-0.9993,-0.999,0,0,0,0,0,0,0,-1.0751,-1.0725,-1.0473,-1.0507,-1.0498,-1.048,-1.0457,-1.0346,-1.0246,-1.0354,-1.0349,-1.0325,-1.0144,-1.0096,-1.008,-0.9909,-1.0004,-0.9995,-0.9988,-0.9984,-0.9651,-0.9648,0,0,0,0,0,0,-1.0775,-1.0735,-1.048,-1.0467,-1.0624,-1.0472,-1.0446,-1.0389,-1.0247,-1.0227,-1.0324,-1.0323,-1.0114,-1.0092,-1.0071,-0.994,-0.9993,-0.9983,-0.9976,-0.9653,-0.965,-0.9648,0,0,0,0,0,0,-1.0782,-1.0753,-1.0489,-1.06,-1.0565,-1.0464,-1.04,-1.0384,-1.0336,-1.0225,-1.0205,-1.0294,-1.0115,-1.0087,-0.9969,-0.9931,-0.9978,-0.9968,-0.9656,-0.9652,-0.9649,-0.9676,0,0,0,0,0,0,-1.0793,-1.0756,-1.0717,-1.06,-1.0559,-1.0393,-1.0397,-1.0378,-1.0319,-1.0316,-1.0192,-1.0173,-1.0114,-0.9986,-0.9958,-0.9917,-0.9959,-0.9658,-0.9654,-0.965,-0.9678,-0.9674,-0.9671,0,0,0,0,0,-1.0805,-1.0729,-1.0715,-1.0684,-1.0509,-1.0391,-1.0368,-1.0305,-1.0316,-1.0275,-1.0204,-1.0177,-0.994,-0.9975,-0.9943,-0.9898,-0.966,-0.9655,-0.965,-0.968,-0.9675,-0.9671,0,0,0,0,0,0,-1.0839,-1.0713,-1.0695,-1.058,-1.0498,-1.0382,-1.0327,-1.0301,-1.021,-1.0211,-1.0134,-1.0106,-0.9994,-0.9934,-0.9974,-0.9789,-0.98,-0.9788,-0.9833,-0.9827,-0.9824,-0.984,-0.995,0,0,0,0,0,-1.0835,-1.0753,-1.0645,-1.0554,-1.0514,-1.0428,-1.0374,-1.0334,-1.0243,-1.0207,-1.0127,-1.0037,-0.9942,-0.9881,-0.9788,-0.967,-0.9641,-0.9623,-0.9619,-0.9617,-0.9607,-0.9542,-0.9532,-0.9631,-0.9631,-0.9631,0,0,-1.0821,-1.0742,-1.0694,-1.0559,-1.049,-1.0405,-1.0399,-1.0308,-1.0243,-1.0191,-1.0078,-1.0016,-0.991,-0.9793,-0.9737,-0.9739,-0.9574,-0.961,-0.9609,-0.96,-0.9535,-0.9526,-0.9518,-0.9627,-0.9628,-0.9629,0,0,-1.0755,-1.0687,-1.0605,-1.0538,-1.0436,-1.038,-1.036,-1.0249,-1.0208,-1.0093,-1.0054,-0.9974,-0.9812,-0.974,-0.9681,-0.9592,-0.9564,-0.9563,-0.9543,-0.948,-0.9472,-0.9465,-0.9434,-0.9423,-0.9554,-0.9554,-0.9554,0,-1.075,-1.0624,-1.0564,-1.0478,-1.0419,-1.0374,-1.0289,-1.0225,-1.0096,-1.0055,-1.006,-0.986,-0.9785,-0.9651,-0.963,-0.9584,-0.9558,-0.9576,-0.9479,-0.9471,-0.9463,-0.9433,-0.9421,-0.9555,-0.9555,-0.9555,-0.9555,0,-1.0624,-1.0537,-1.0483,-1.0366,-1.0301,-1.0215,-1.014,-1.0081,-1.0047,-0.999,-0.9874,-0.9784,-0.9673,-0.9638,-0.9601,-0.9499,-0.9504,-0.9495,-0.9504,-0.9456,-0.9426,-0.9413,-0.9556,-0.9556,-0.9555,-0.9555,0,0,-1.057,-1.0426,-1.0406,-1.0354,-1.024,-1.0169,-1.0082,-0.9978,-0.9929,-0.9842,-0.9765,-0.9632,-0.9625,-0.9559,-0.9514,-0.9459,-0.9396,-0.9457,-0.9453,-0.9449,-0.9278,-0.9286,-0.9273,-0.9377,-0.9375,-0.9373,-0.9287,0,-1.049,-1.0336,-1.0282,-1.0154,-1.0073,-1.003,-0.9954,-0.9874,-0.9819,-0.974,-0.9677,-0.9585,-0.9581,-0.9542,-0.9485,-0.9416,-0.936,-0.9421,-0.9303,-0.93,-0.9332,-0.9257,-0.9264,-0.9188,-0.9275,-0.9273,-0.9271,0,-1.0375,-1.0293,-1.0159,-1.0058,-1.0022,-0.9955,-0.9857,-0.9783,-0.9691,-0.9655,-0.9584,-0.9544,-0.9448,-0.9465,-0.9331,-0.9374,-0.9322,-0.9281,-0.9276,-0.9262,-0.9283,-0.9242,-0.9162,-0.9151,-0.9252,-0.9254,-0.9255,0,-1.0351,-1.0206,-1.0108,-1.0064,-0.9944,-0.9898,-0.9844,-0.9756,-0.9698,-0.9611,-0.9572,-0.9473,-0.9419,-0.9343,-0.9276,-0.9294,-0.9149,-0.9159,-0.9115,-0.9117,-0.9085,-0.9088,-0.8997,-0.9053,-0.9053,-0.9053,-0.9053,0,-1.0268,-1.0187,-1.0097,-1.0036,-0.9945,-0.9882,-0.9792,-0.9735,-0.9657,-0.9583,-0.9538,-0.9469,-0.9386,-0.9305,-0.9252,-0.915,-0.9125,-0.9092,-0.9079,-0.9096,-0.9101,-0.9061,-0.9064,-0.905,-0.9051,-0.9051,-0.9052,0,-1.0225,-1.0161,-1.0052,-0.9949,-0.9921,-0.9858,-0.9768,-0.9706,-0.9651,-0.9558,-0.9532,-0.9444,-0.9347,-0.9274,-0.9146,-0.9111,-0.9003,-0.8989,-0.9036,-0.9029,-0.8989,-0.8994,-0.8869,-0.8849,-0.8918,-0.8918,-0.8917,0,-1.0176,-1.0114,-1.0006,-0.9956,-0.9905,-0.9823,-0.9766,-0.9702,-0.9643,-0.9536,-0.9487,-0.9389,-0.9306,-0.9153,-0.9075,-0.8978,-0.8961,-0.8924,-0.8945,-0.8966,-0.8961,-0.8966,-0.8959,-0.8921,-0.892,-0.892,-0.892,0,-1.0096,-1.0069,-0.999,-0.9901,-0.9835,-0.976,-0.9684,-0.9644,-0.9566,-0.9502,-0.9405,-0.9342,-0.9215,-0.9117,-0.9013,-0.8954,-0.8923,-0.8914,-0.8899,-0.8915,-0.8946,-0.893,-0.9028,-0.8917,-0.8917,-0.8917,-0.8917,-0.8917,-1.0048,-0.9993,-0.991,-0.9824,-0.9762,-0.9693,-0.9631,-0.9571,-0.949,-0.9385,-0.9351,-0.9251,-0.9162,-0.902,-0.8961,-0.888,-0.8879,-0.8857,-0.8851,-0.8847,-0.8849,-0.896,-0.886,-0.886,-0.886,-0.886,-0.886,0,-0.9967,-0.9913,-0.9835,-0.9734,-0.9666,-0.9648,-0.9564,-0.9508,-0.9422,-0.9344,-0.9266,-0.9155,-0.906,-0.8977,-0.8879,-0.883,-0.8813,-0.8806,-0.8809,-0.8796,-0.8854,-0.8878,-0.8821,-0.8821,-0.8821,-0.8821,-0.8821,-0.8821,-0.9917,-0.9823,-0.9786,-0.966,-0.9604,-0.9511,-0.9464,-0.94,-0.9338,-0.9218,-0.9142,-0.909,-0.9009,-0.8905,-0.8817,-0.8795,-0.876,-0.8757,-0.8731,-0.8787,-0.8791,-0.8796,-0.8818,-0.875,-0.875,-0.8679,-0.8679,-0.8678]}]]